• Join FlightAware (Why Join?)
  • Login
  • US Flag GB Flag 
07:56 EDT


 

Airport Tracker/Info


-or-


 

Live Flight TrackerFlight Track Log ✈ UPS1337 ✈ 03-Mar-2014 ✈ KPIE - KSDF

Flight Track Log - Related Links

Times and Time Zones

All times are in EST time to prevent confusion due to time zone crossing. See the UPS1337 flight status page for this flight to view local times or setup timezone preferences in your user account.

Time Position Orientation Groundspeed Altitude Reporting Facility
EST Latitude Longitude Course Direction KTS MPH feet Rate Location/Type
21:42 27.9000 -82.6833 164° South 157 181 900  Level Tampa TRACON
21:43 27.8500 -82.6667 164° South 217 250 3,000 2,820 Climbing Tampa TRACON
21:44 27.8000 -82.7167 222° Southwest 280 322 6,600 3,000 Climbing Tampa TRACON
21:46 27.9225 -82.7586 343° North 273 314 11,400 2,040 Climbing Jacksonville Center
21:47 28.0289 -82.7608 359° North 318 366 12,300 1,800 Climbing Jacksonville Center
21:48 28.1353 -82.7608 360° North 364 419 15,100 2,640 Climbing Jacksonville Center
21:49 28.2500 -82.7631 359° North 392 451 17,600 2,640 Climbing Jacksonville Center
21:50 28.3628 -82.7958 346° North 405 466 20,400 2,520 Climbing Jacksonville Center
21:51 28.4797 -82.8311 345° North 417 480 22,700 1,800 Climbing Jacksonville Center
21:52 28.6006 -82.8667 346° North 430 495 24,100 1,500 Climbing Jacksonville Center
21:53 28.7092 -82.8972 346° North 443 510 25,800 1,320 Climbing Jacksonville Center
21:59 29.4719 -83.1236 345° North 432 497 34,000 1,140 Climbing FlightAware ADS-B (KMCO)
22:00 29.5503 -83.1503 345° North 437 503 34,000  Level Jacksonville Center
22:01 29.6669 -83.1867 345° North 437 503 34,000  Level Jacksonville Center
22:02 29.7858 -83.2206 346° North 437 503 34,000  Level Jacksonville Center
22:03 29.9153 -83.2617 345° North 437 503 34,000  Level Jacksonville Center
22:09 30.6064 -83.4694 345° North 440 506 34,000  Level FlightAware ADS-B (KTLH)
22:10 30.6913 -83.4955 345° North 438 504 34,000  Level FlightAware ADS-B (KTLH)
22:12 30.9060 -83.5624 345° North 435 501 34,000  Level FlightAware ADS-B (KTLH)
22:13 31.1163 -83.6283 345° North 434 499 34,000  Level FlightAware ADS-B (KTLH)
22:14 31.1931 -83.6531 345° North 436 502 34,000  Level Atlanta Center
22:15 31.3058 -83.6889 345° North 444 511 34,000  Level Atlanta Center
22:16 31.4206 -83.7250 345° North 437 503 34,000  Level Atlanta Center
22:17 31.5417 -83.7661 344° North 427 491 34,000  Level Atlanta Center
22:18 31.6567 -83.8069 343° North 421 484 34,000  Level Atlanta Center
22:19 31.7611 -83.8289 350° North 421 484 34,000  Level Atlanta Center
22:20 31.8925 -83.8750 343° North 432 497 34,000  Level Atlanta Center
22:21 32.0053 -83.9114 345° North 432 497 34,000  Level Atlanta Center
22:22 32.1203 -83.9481 345° North 432 497 34,000  Level Atlanta Center
22:23 32.2331 -83.9825 346° North 427 491 34,000  Level Atlanta Center
22:24 32.3247 -84.0119 345° North 422 486 34,000  Level Atlanta Center
22:25 32.4478 -84.0536 344° North 417 480 34,000  Level Atlanta Center
22:26 32.5606 -84.0906 345° North 417 480 34,000  Level Atlanta Center
22:27 32.6733 -84.1253 345° North 417 480 34,000  Level Atlanta Center
22:28 32.7861 -84.1622 345° North 417 480 34,000  Level Atlanta Center
22:29 32.9111 -84.2047 344° North 422 486 34,000  Level Atlanta Center
22:30 33.0239 -84.2444 344° North 422 486 34,000  Level Atlanta Center
22:31 33.1344 -84.2794 345° North 422 486 34,000  Level Atlanta Center
22:32 33.2492 -84.3169 345° North 416 479 34,000  Level Atlanta Center
22:37 33.9335 -84.4428 355° North 594 684 34,000  Level FlightAware ADS-B (KDZJ)
22:38 34.0120 -84.4531 354° North 417 480 34,000  Level FlightAware ADS-B (KDZJ)
22:39 34.0892 -84.4631 354° North 404 465 34,000  Level FlightAware ADS-B (KDZJ)
22:39 34.1659 -84.4732 354° North 407 468 34,000  Level FlightAware ADS-B (KDZJ)
22:40 34.2403 -84.4831 354° North 405 466 34,000  Level FlightAware ADS-B (KDZJ)
22:41 34.3156 -84.4932 354° North 402 463 34,000  Level FlightAware ADS-B (KDZJ)
22:41 34.3913 -84.5032 354° North 403 464 34,000  Level FlightAware ADS-B (KDZJ)
22:42 34.4657 -84.5129 354° North 407 468 34,000  Level FlightAware ADS-B (KDZJ)
22:43 34.5410 -84.5231 354° North 403 464 34,000  Level FlightAware ADS-B (KDZJ)
22:43 34.6147 -84.5328 354° North 401 461 34,000  Level FlightAware ADS-B (KDZJ)
22:44 34.6896 -84.5429 354° North 402 463 34,000  Level FlightAware ADS-B (KDZJ)
22:45 34.7632 -84.5530 354° North 403 464 34,000  Level FlightAware ADS-B (KDZJ)
22:45 34.8380 -84.5629 354° North 404 465 34,000  Level FlightAware ADS-B (KDZJ)
22:46 34.9118 -84.5726 354° North 403 464 34,000  Level FlightAware ADS-B (KDZJ)
22:47 34.9878 -84.5829 354° North 403 464 34,000  Level FlightAware ADS-B (KDZJ)
22:47 35.0599 -84.5924 354° North 402 463 34,000  Level FlightAware ADS-B (KDZJ)
22:48 35.1345 -84.6025 354° North 402 463 34,000  Level FlightAware ADS-B (KDZJ)
22:49 35.2041 -84.6121 354° North 403 464 34,000  Level FlightAware ADS-B (KDZJ)
22:50 35.2674 -84.6207 354° North 403 464 34,000  Level FlightAware ADS-B (KMDQ)
22:51 35.3746 -84.6353 354° North 403 464 34,000  Level FlightAware ADS-B (KMDQ)
22:53 35.4591 -84.6466 354° North 401 461 34,000  Level FlightAware ADS-B (KMDQ)
22:54 35.4591 -84.6466 353° North 398 458 34,000 -120 Level FlightAware ADS-B (KMDQ)
22:57 35.9959 -84.7226 353° North 404 465 33,600 -720 Descending FlightAware ADS-B (KMDQ)
22:57 36.0682 -84.7331 353° North 405 466 31,900 -1,140 Descending FlightAware ADS-B (KMDQ)
23:00 36.3897 -84.7796 354° North 441 507 30,000 -720 Descending FlightAware ADS-B (KBRY)
23:01 36.5396 -84.7997 354° North 446 513 29,200 -840 Descending FlightAware ADS-B (KBRY)
23:02 36.6889 -84.8197 354° North 438 504 28,000 -840 Descending FlightAware ADS-B (KBRY)
23:03 36.7498 -84.8283 354° North 438 504 27,300 -1,140 Descending FlightAware ADS-B (KBRY)
23:05 36.9608 -84.8570 354° North 446 513 25,600 -1,920 Descending FlightAware ADS-B (KBRY)
23:05 37.0228 -84.8656 354° North 436 502 24,200 -3,000 Descending FlightAware ADS-B (KBRY)
23:06 37.1739 -84.8865 354° North 422 486 19,900 -2,940 Descending FlightAware ADS-B (KBRY)
23:08 37.3069 -84.9047 354° North 409 471 17,200 -2,580 Descending FlightAware ADS-B (KBRY)
23:09 37.4253 -84.9207 354° North 380 437 14,500 -1,860 Descending FlightAware ADS-B (KBRY)
23:12 37.7166 -85.0386 312° West 351 404 9,600 -1,260 Descending FlightAware ADS-B (KBRY)
23:13 37.7721 -85.1219 298° West 284 327 9,500 -900 Descending FlightAware ADS-B (KBRY)
23:14 37.8049 -85.2087 295° West 270 311 7,900 -1,680 Descending FlightAware ADS-B (KBRY)
23:15 37.8361 -85.2927 296° West 267 307 6,200 -1,740 Descending FlightAware ADS-B (KBRY)
23:16 37.8692 -85.3790 295° West 270 311 4,500 -1,560 Descending FlightAware ADS-B (KBRY)
23:17 37.9060 -85.4774 295° West 260 299 2,800 -900 Descending FlightAware ADS-B (KBRY)
23:18 37.9394 -85.5554 315° West 257 296 2,600 -120 Descending FlightAware ADS-B (KBRY)
23:19 37.9861 -85.6135 315° West 213 245 2,600  Level FlightAware ADS-B (KBRY)
23:20 38.0280 -85.6670 315° West 194 223 2,600 -240 Level FlightAware ADS-B (KBRY)
23:21 38.0710 -85.6915 345° North 162 186 2,200 -660 Descending FlightAware ADS-B (KBRY)
23:22 38.1142 -85.7063 347° North 123 142 1,200 -840 Descending FlightAware ADS-B (KBRY)
23:23 38.1378 -85.7144 345° North 121 139 700 -780 Descending FlightAware ADS-B (KBRY)
23:29 38.1667 -85.7333 208° Southwest  Level FlightAware Approximate
23:30 38.1741 -85.7365 208° Southwest  Level Estimated
23:31 38.1741 -85.7365 208° Southwest  Level Estimated